When you browse on this site, cookies collect data to enhance your experience and personalize the content and advertising you see.
Visit our Privacy Policy to learn more. By continuing to use the site, you agree to this use of cookies and data.
  • In United Kingdom
  • List of Countries
  • For 7 days
  • Water Temperature
  • Weather Map
  • Weather Widgets
  • user-avatar
    Login

    Hourly Weather Nyiregyhaza

    Today, 8 April, Wednesday

    Time Temperature Precipitation Wind Pressure Humidity
    00:00 +9°C° 0 mm 0 mps 764 mmHg 50%
    01:00 +8°C° 0 mm 0 mps 764 mmHg 51%
    02:00 +9°C° 0 mm 1 mps 764 mmHg 53%
    03:00 +8°C° 0 mm 1 mps 764 mmHg 54%
    04:00 +8°C° 0 mm 1 mps 764 mmHg 56%
    05:00 +9°C° 0 mm 1 mps 764 mmHg 56%
    06:00 +10°C° 0 mm 1 mps 764 mmHg 56%
    07:00 +11°C° 0 mm 1 mps 764 mmHg 56%
    08:00 +13°C° 0 mm 1 mps 764 mmHg 51%
    09:00 +14°C° 0 mm 0 mps 763 mmHg 46%
    10:00 +16°C° 0 mm 0 mps 763 mmHg 42%
    11:00 +17°C° 0 mm 0 mps 762 mmHg 38%
    12:00 +20°C° 0 mm 1 mps 762 mmHg 35%
    13:00 +20°C° 0 mm 1 mps 761 mmHg 32%
    14:00 +20°C° 0 mm 1 mps 761 mmHg 32%
    15:00 +20°C° 0 mm 1 mps 760 mmHg 32%
    16:00 +20°C° 0 mm 1 mps 760 mmHg 32%
    17:00 +18°C° 0 mm 1 mps 760 mmHg 36%
    18:00 +16°C° 0 mm 1 mps 760 mmHg 40%
    19:00 +14°C° 0 mm 1 mps 760 mmHg 44%
    20:00 +13°C° 0 mm 1 mps 760 mmHg 46%
    21:00 +12°C° 0 mm 1 mps 760 mmHg 47%
    22:00 +12°C° 0 mm 1 mps 760 mmHg 49%
    23:00 +11°C° 0 mm 1 mps 759 mmHg 50%

    Tomorrow, 9 April, Thursday

    Time Temperature Precipitation Wind Pressure Humidity
    00:00 +11°C° 0 mm 1 mps 759 mmHg 51%
    01:00 +10°C° 0 mm 1 mps 759 mmHg 53%
    02:00 +10°C° 0 mm 1 mps 759 mmHg 54%
    03:00 +8°C° 0 mm 0 mps 758 mmHg 56%
    04:00 +8°C° 0 mm 0 mps 758 mmHg 57%
    05:00 +9°C° 0 mm 0 mps 758 mmHg 56%
    06:00 +11°C° 0 mm 1 mps 758 mmHg 55%
    07:00 +12°C° 0 mm 1 mps 758 mmHg 54%
    08:00 +14°C° 0 mm 1 mps 758 mmHg 49%
    09:00 +16°C° 0 mm 1 mps 757 mmHg 45%
    10:00 +17°C° 0 mm 2 mps 757 mmHg 40%
    11:00 +18°C° 0 mm 2 mps 757 mmHg 38%
    12:00 +19°C° 0 mm 3 mps 757 mmHg 35%
    13:00 +20°C° 0 mm 3 mps 756 mmHg 32%
    14:00 +20°C° 0 mm 3 mps 756 mmHg 34%
    15:00 +20°C° 0 mm 3 mps 756 mmHg 36%
    16:00 +20°C° 0 mm 4 mps 755 mmHg 37%
    17:00 +18°C° 0 mm 3 mps 755 mmHg 43%
    18:00 +16°C° 0 mm 3 mps 755 mmHg 48%
    19:00 +14°C° 0 mm 2 mps 755 mmHg 54%
    20:00 +13°C° 0 mm 2 mps 755 mmHg 55%
    21:00 +13°C° 0 mm 2 mps 756 mmHg 57%
    22:00 +12°C° 0 mm 2 mps 756 mmHg 58%
    23:00 +10°C° 0 mm 2 mps 756 mmHg 60%

    Day after tomorrow, 10 April, Friday

    Time Temperature Precipitation Wind Pressure Humidity
    00:00 +10°C° 0 mm 2 mps 756 mmHg 62%
    01:00 +10°C° 0 mm 2 mps 756 mmHg 64%
    02:00 +9°C° 0 mm 2 mps 756 mmHg 69%
    03:00 +9°C° 0 mm 3 mps 756 mmHg 73%
    04:00 +9°C° 0 mm 3 mps 756 mmHg 77%
    05:00 +10°C° 0 mm 4 mps 756 mmHg 74%
    06:00 +10°C° 0 mm 5 mps 756 mmHg 72%
    07:00 +12°C° 0 mm 5 mps 756 mmHg 69%
    08:00 +13°C° 0 mm 6 mps 757 mmHg 63%
    09:00 +14°C° 0 mm 6 mps 757 mmHg 57%
    10:00 +15°C° 0 mm 6 mps 757 mmHg 50%
    11:00 +16°C° 0 mm 6 mps 757 mmHg 47%
    12:00 +16°C° 0 mm 6 mps 757 mmHg 44%
    13:00 +16°C° 0 mm 6 mps 757 mmHg 41%
    14:00 +16°C° 0 mm 6 mps 756 mmHg 41%
    15:00 +15°C° 0 mm 6 mps 756 mmHg 42%
    16:00 +15°C° 0 mm 5 mps 756 mmHg 42%
    17:00 +13°C° 0 mm 5 mps 756 mmHg 47%
    18:00 +12°C° 0 mm 4 mps 757 mmHg 51%
    19:00 +10°C° 0 mm 4 mps 757 mmHg 56%
    20:00 +10°C° 0 mm 4 mps 757 mmHg 55%
    21:00 +9°C° 0 mm 3 mps 757 mmHg 54%
    22:00 +8°C° 0 mm 3 mps 758 mmHg 54%
    23:00 +7°C° 0 mm 3 mps 758 mmHg 55%

    11 April, Saturday

    Time Temperature Precipitation Wind Pressure Humidity
    00:00 +7°C° 0 mm 3 mps 758 mmHg 56%
    01:00 +5°C° 0 mm 3 mps 757 mmHg 57%
    02:00 +6°C° 0 mm 2 mps 758 mmHg 57%
    03:00 +5°C° 0 mm 2 mps 758 mmHg 58%
    04:00 +5°C° 0 mm 2 mps 758 mmHg 59%
    05:00 +6°C° 0 mm 2 mps 758 mmHg 58%
    06:00 +7°C° 0 mm 2 mps 758 mmHg 56%
    07:00 +8°C° 0 mm 2 mps 758 mmHg 55%
    08:00 +10°C° 0 mm 3 mps 758 mmHg 50%
    09:00 +11°C° 0 mm 3 mps 758 mmHg 45%
    10:00 +13°C° 0 mm 3 mps 758 mmHg 39%
    11:00 +14°C° 0 mm 3 mps 758 mmHg 37%
    12:00 +16°C° 0 mm 3 mps 757 mmHg 35%
    13:00 +17°C° 0 mm 3 mps 757 mmHg 33%
    14:00 +17°C° 0 mm 2 mps 757 mmHg 33%
    15:00 +17°C° 0 mm 2 mps 757 mmHg 34%
    16:00 +17°C° 0 mm 2 mps 756 mmHg 34%
    17:00 +15°C° 0 mm 2 mps 757 mmHg 39%
    18:00 +13°C° 0 mm 2 mps 757 mmHg 44%
    19:00 +12°C° 0 mm 1 mps 757 mmHg 49%
    20:00 +10°C° 0 mm 2 mps 757 mmHg 52%
    21:00 +9°C° 0 mm 2 mps 757 mmHg 55%
    22:00 +8°C° 0 mm 2 mps 758 mmHg 58%
    23:00 +8°C° 0 mm 2 mps 758 mmHg 60%

    12 April, Sunday

    Time Temperature Precipitation Wind Pressure Humidity
    00:00 +7°C° 0 mm 2 mps 758 mmHg 62%
    01:00 +7°C° 0 mm 2 mps 758 mmHg 64%
    02:00 +6°C° 0 mm 2 mps 758 mmHg 65%
    03:00 +7°C° 0 mm 1 mps 757 mmHg 66%
    04:00 +6°C° 0 mm 1 mps 757 mmHg 68%
    05:00 +8°C° 0 mm 1 mps 757 mmHg 65%
    06:00 +9°C° 0 mm 1 mps 757 mmHg 63%
    07:00 +10°C° 0 mm 1 mps 757 mmHg 60%
    08:00 +12°C° 0 mm 1 mps 757 mmHg 55%
    09:00 +14°C° 0 mm 1 mps 757 mmHg 50%
    10:00 +16°C° 0 mm 1 mps 756 mmHg 44%
    11:00 +18°C° 0 mm 1 mps 756 mmHg 43%
    12:00 +19°C° 0 mm 1 mps 756 mmHg 41%
    13:00 +20°C° 0 mm 1 mps 755 mmHg 39%
    14:00 +19°C° 0 mm 2 mps 755 mmHg 39%
    15:00 +19°C° 0 mm 2 mps 754 mmHg 39%
    16:00 +19°C° 0 mm 2 mps 754 mmHg 39%
    17:00 +17°C° 0 mm 2 mps 754 mmHg 44%
    18:00 +15°C° 0 mm 2 mps 754 mmHg 49%
    19:00 +13°C° 0 mm 2 mps 753 mmHg 55%
    20:00 +12°C° 0 mm 2 mps 753 mmHg 55%
    21:00 +12°C° 0 mm 2 mps 753 mmHg 56%
    22:00 +10°C° 0 mm 2 mps 753 mmHg 57%
    23:00 +10°C° 0 mm 2 mps 753 mmHg 58%

    13 April, Monday

    Time Temperature Precipitation Wind Pressure Humidity
    00:00 +9°C° 0 mm 2 mps 753 mmHg 59%
    01:00 +9°C° 0 mm 2 mps 753 mmHg 61%
    02:00 +9°C° 0 mm 2 mps 753 mmHg 64%
    03:00 +9°C° 0 mm 2 mps 752 mmHg 68%
    04:00 +8°C° 0 mm 2 mps 752 mmHg 71%
    05:00 +9°C° 0 mm 2 mps 752 mmHg 70%
    06:00 +10°C° 0 mm 2 mps 752 mmHg 69%
    07:00 +12°C° 0 mm 2 mps 752 mmHg 67%
    08:00 +13°C° 0 mm 3 mps 751 mmHg 62%
    09:00 +15°C° 0 mm 4 mps 751 mmHg 56%
    10:00 +17°C° 0 mm 5 mps 751 mmHg 50%
    11:00 +19°C° 0 mm 5 mps 750 mmHg 49%
    12:00 +19°C° 0 mm 5 mps 750 mmHg 49%
    13:00 +20°C° 0 mm 5 mps 750 mmHg 48%
    14:00 +20°C° 0 mm 5 mps 750 mmHg 49%
    15:00 +20°C° 0 mm 5 mps 749 mmHg 50%
    16:00 +20°C° 0 mm 5 mps 749 mmHg 51%
    17:00 +19°C° 0.2 mm 5 mps 749 mmHg 58%
    18:00 +17°C° 0.2 mm 4 mps 748 mmHg 65%
    19:00 +14°C° 0.2 mm 4 mps 748 mmHg 72%
    20:00 +14°C° 0 mm 4 mps 748 mmHg 73%
    21:00 +13°C° 0 mm 5 mps 748 mmHg 75%
    22:00 +13°C° 0 mm 5 mps 748 mmHg 76%
    23:00 +13°C° 0 mm 5 mps 748 mmHg 75%
    Show more